Terminal Aerodrome Forecast
Issued by NWS Mt. Holly, NJ

Home | Current Version | Previous Version | Text Only | Print | Product List | Glossary On
Versions: 1 2 3 4 5 6 7 8 9 10 11 12 13 14 15 16 17 18 19 20 21 22 23
243
FTUS41 KPHI 201733
TAFACY
TAF
KACY 201733Z 2018/2118 VRB03KT 6SM -RA SCT040 OVC080
     FM201900 15006KT 4SM -RA BR SCT015 OVC035
     FM210200 14004KT 4SM BR BKN008 OVC015
     FM210400 18003KT 2SM BR OVC003
     FM211400 23005KT 5SM BR BKN008=

USA.gov is the U.S. government's official web portal to all federal, state and local government web resources and services.